TimeEDT,TemperatureF,Dew PointF,Humidity,Sea Level PressureIn,VisibilityMPH,Wind Direction,Wind SpeedMPH,Gust SpeedMPH,PrecipitationIn,Events,Conditions,WindDirDegrees,DateUTC
12:54 AM,41.0,37.9,89,29.72,10.0,West,15.0,-,N/A,,Mostly Cloudy,260,2013-04-01 04:54:00
1:54 AM,41.0,37.9,89,29.73,10.0,WSW,12.7,23.0,N/A,,Overcast,250,2013-04-01 05:54:00
2:17 AM,41.0,37.4,87,29.69,10.0,WSW,13.8,-,N/A,,Overcast,240,2013-04-01 06:17:00
2:31 AM,42.8,37.4,81,29.69,10.0,WSW,13.8,20.7,N/A,,Overcast,240,2013-04-01 06:31:00
2:54 AM,42.1,37.0,82,29.72,10.0,WSW,10.4,-,N/A,,Overcast,240,2013-04-01 06:54:00
3:42 AM,42.8,35.6,76,29.68,10.0,WSW,15.0,23.0,0.00,Rain,Light Rain,240,2013-04-01 07:42:00
3:54 AM,42.1,37.0,82,29.71,10.0,WSW,11.5,23.0,0.00,Rain,Light Rain,250,2013-04-01 07:54:00
4:25 AM,42.8,37.4,81,29.67,10.0,WSW,16.1,21.9,N/A,,Overcast,240,2013-04-01 08:25:00
4:43 AM,42.8,37.4,81,29.66,10.0,WSW,16.1,-,N/A,,Overcast,250,2013-04-01 08:43:00
5:54 AM,42.1,37.0,82,29.70,10.0,West,16.1,26.5,N/A,,Overcast,260,2013-04-01 09:54:00
6:16 AM,42.8,37.4,81,29.67,10.0,West,15.0,21.9,N/A,,Overcast,260,2013-04-01 10:16:00
6:54 AM,41.0,36.0,82,29.72,10.0,West,18.4,25.3,N/A,,Overcast,270,2013-04-01 10:54:00
7:54 AM,41.0,36.0,82,29.73,10.0,West,15.0,21.9,N/A,,Overcast,260,2013-04-01 11:54:00
8:25 AM,39.2,35.6,87,29.71,3.0,WNW,15.0,21.9,0.02,Rain,Rain,290,2013-04-01 12:25:00
8:32 AM,37.4,33.8,87,29.72,5.0,West,21.9,38.0,0.03,Rain,Light Rain,280,2013-04-01 12:32:00
8:43 AM,37.4,30.2,75,29.72,10.0,West,16.1,26.5,0.03,,Overcast,280,2013-04-01 12:43:00
8:50 AM,39.2,30.2,70,29.72,10.0,WNW,18.4,24.2,0.03,,Overcast,290,2013-04-01 12:50:00
8:51 AM,39.0,28.9,67,29.76,10.0,WNW,19.6,26.5,0.03,,Overcast,290,2013-04-01 12:51:00
9:54 AM,37.0,27.0,67,29.78,8.0,West,16.1,28.8,0.00,Snow,Light Snow,280,2013-04-01 13:54:00
10:07 AM,35.6,28.4,75,29.75,6.0,West,18.4,27.6,0.00,Snow,Light Snow,280,2013-04-01 14:07:00
10:24 AM,33.8,28.4,81,29.76,1.8,WNW,18.4,24.2,0.00,Snow,Light Snow,300,2013-04-01 14:24:00
10:35 AM,33.8,30.2,87,29.76,2.0,WNW,17.3,-,0.00,Snow,Light Snow,290,2013-04-01 14:35:00
10:45 AM,33.8,28.4,81,29.77,1.8,WNW,15.0,24.2,0.00,Snow,Light Snow,300,2013-04-01 14:45:00
10:49 AM,32.0,28.4,87,29.77,1.5,NW,16.1,24.2,0.00,Snow,Light Snow,310,2013-04-01 14:49:00
10:54 AM,32.0,30.0,92,29.82,1.8,WNW,16.1,-,0.00,Snow,Light Snow,300,2013-04-01 14:54:00
11:02 AM,32.0,30.2,93,29.77,2.5,WNW,17.3,-,0.00,Snow,Light Snow,290,2013-04-01 15:02:00
11:04 AM,32.0,30.2,93,29.77,3.0,West,15.0,-,0.00,Snow,Light Snow,280,2013-04-01 15:04:00
11:13 AM,32.0,28.4,87,29.78,6.0,West,18.4,-,0.00,,Overcast,280,2013-04-01 15:13:00
11:21 AM,32.0,28.4,87,29.78,1.8,West,15.0,-,0.00,Snow,Light Snow,280,2013-04-01 15:21:00
11:32 AM,30.2,28.4,93,29.78,0.5,West,18.4,27.6,0.00,Fog-Snow,Snow,270,2013-04-01 15:32:00
11:49 AM,32.0,30.2,93,29.78,1.0,West,12.7,-,0.00,Snow,Light Snow,270,2013-04-01 15:49:00
11:54 AM,32.0,30.0,92,29.83,1.2,West,13.8,-,0.00,Snow,Light Snow,270,2013-04-01 15:54:00
12:02 PM,33.8,30.2,87,29.78,2.0,West,13.8,21.9,0.00,Snow,Light Snow,260,2013-04-01 16:02:00
12:15 PM,33.8,30.2,87,29.79,1.5,West,12.7,23.0,0.00,Snow,Light Snow,270,2013-04-01 16:15:00
12:28 PM,32.0,28.4,87,29.79,1.0,West,15.0,21.9,0.00,Snow,Light Snow,260,2013-04-01 16:28:00
12:30 PM,30.2,28.4,93,29.79,0.8,West,13.8,21.9,0.01,Snow,Light Snow,260,2013-04-01 16:30:00
12:40 PM,28.4,26.6,93,29.80,0.2,WNW,20.7,28.8,0.03,Fog-Snow,Snow,300,2013-04-01 16:40:00
12:49 PM,28.4,26.6,93,29.80,1.0,WNW,19.6,26.5,0.03,Snow,Light Snow,300,2013-04-01 16:49:00
12:50 PM,28.9,27.0,92,29.86,1.2,WNW,17.3,26.5,0.03,Snow,Light Snow,300,2013-04-01 16:50:00
12:56 PM,28.4,26.6,93,29.81,2.0,WNW,16.1,24.2,0.00,Snow,Light Snow,300,2013-04-01 16:56:00
1:04 PM,28.4,26.6,93,29.81,1.8,WNW,17.3,-,0.00,Snow,Light Snow,300,2013-04-01 17:04:00
1:23 PM,28.4,24.8,86,29.82,1.8,WNW,13.8,-,0.00,Snow,Light Snow,300,2013-04-01 17:23:00
1:27 PM,28.4,26.6,93,29.82,2.0,WNW,15.0,-,0.00,Snow,Light Snow,300,2013-04-01 17:27:00
1:34 PM,28.4,24.8,86,29.82,2.0,WNW,16.1,-,0.00,Snow,Light Snow,300,2013-04-01 17:34:00
2:32 PM,30.2,24.8,80,29.81,10.0,WNW,13.8,21.9,0.00,,Mostly Cloudy,290,2013-04-01 18:32:00
2:44 PM,32.0,26.6,80,29.81,10.0,West,10.4,18.4,0.00,,Mostly Cloudy,260,2013-04-01 18:44:00
3:54 PM,35.1,19.9,54,29.86,10.0,WNW,18.4,27.6,N/A,,Mostly Cloudy,290,2013-04-01 19:54:00
4:54 PM,35.1,14.0,42,29.87,10.0,WNW,18.4,28.8,N/A,,Scattered Clouds,290,2013-04-01 20:54:00
5:54 PM,34.0,14.0,44,29.89,10.0,NW,20.7,28.8,N/A,,Mostly Cloudy,310,2013-04-01 21:54:00
6:54 PM,33.1,12.9,43,29.91,10.0,WNW,16.1,-,N/A,,Mostly Cloudy,300,2013-04-01 22:54:00
7:54 PM,30.9,10.9,43,29.92,10.0,WNW,16.1,20.7,N/A,,Clear,290,2013-04-01 23:54:00
8:54 PM,30.0,10.0,43,29.94,10.0,WNW,16.1,23.0,N/A,,Partly Cloudy,290,2013-04-02 00:54:00
9:54 PM,28.0,10.9,49,29.96,10.0,NW,10.4,-,N/A,,Clear,310,2013-04-02 01:54:00
10:54 PM,27.0,9.0,47,29.98,10.0,WNW,10.4,-,N/A,,Partly Cloudy,300,2013-04-02 02:54:00
11:54 PM,26.1,10.0,51,29.98,10.0,WNW,10.4,-,N/A,,Mostly Cloudy,300,2013-04-02 03:54:00